カタログに戻る

FENGYUN 1C DEB

LostSSO
NORAD 38825·DEBRIS·🇨🇳 China

打ち上げ May 10, 1999 から Taiyuan Satellite Launch Center

Loading…

次のパス (今後24時間)

TLE

古いSource: Space-Track

元期: Aug 31, 2022, 11:36 UTC

1 38825U 99025EVR 22243.48333715  .00000524  00000-0  46288-3 0  9990
2 38825  99.0212 330.7583 0223916 103.8969 320.3606 13.78353512577916

AllMySatでFENGYUN 1C DEBをリアルタイム追跡

Download on the App Store